Location: Luz Observatory
(34.5000°N, 117.2833°W)
Time: 12:10:29
(UTC-07:00)

Daily predictions for brighter satellites

Satellite Brightness Start Highest point End
(mag) Time Altitude Azimuth Time Altitude Azimuth Time Altitude Azimuth
Cosmos 2034 Rocket 4.1 19:45:39 10° S 19:51:50 86° W 19:58:02 10° N
CENTAUR R/B 3.8 19:51:09 10° SW 19:56:49 44° NW 20:03:12 10° NNE
Gblst 52 Del rocket 4.4 19:51:51 10° NW 19:57:43 63° NE 20:03:10 10° ESE
Resurs 1-3 4.1 19:53:49 10° SE 19:57:55 41° ENE 20:02:03 10° N
Cosmos 1151 Rocket 4.5 19:55:20 10° SSW 19:59:27 43° W 20:03:35 10° N
Cosmos 1869 Rocket 4.1 19:56:36 10° N 20:00:52 41° E 20:05:05 10° SSE
Abrixas rocket 4.4 19:58:40 10° W 20:01:32 27° NNW 20:04:25 10° NNE
Cosmos 2360 4.2 19:58:38 10° SSW 20:04:20 82° ESE 20:10:06 10° NNE
Atlas Centaur 2 3.4 20:00:51 10° SW 20:06:48 35° SSE 20:13:52 10° E
SL-8 R/B 3.8 20:02:21 10° NW 20:07:12 82° SW 20:11:57 10° SE
Cosmos 1455 2.1 20:06:16 10° S 20:10:03 76° E 20:13:50 10° N
BREEZE-M DEB (TANK) 3.7 20:07:42 10° WNW 20:10:11 39° SW 20:15:14 10° SSE
Helios 1A 3.9 20:13:12 11° SE 20:16:49 32° ENE 20:20:37 10° N
Molniya-1 4.3 20:17:54 10° WSW 20:19:23 31° NW 20:21:06 10° NNE
Cosmos 1869 3.3 20:19:47 10° S 20:23:37 56° E 20:27:29 10° NNE
DELTA 2 R/B (1) 3.6 20:20:26 10° WNW 20:26:03 82° SSW 20:30:21 18° ESE
CZ-4B DEB 3.9 20:26:45 20° E 20:27:39 23° ENE 20:30:09 10° NNE
GRACE-1 3.8 20:25:35 10° N 20:28:20 87° WNW 20:31:03 10° S
GRACE-2 3.7 20:26:00 10° N 20:28:43 87° WNW 20:31:27 10° S
Resurs 01 Rocket 1.9 20:24:42 10° S 20:29:08 70° WSW 20:33:35 10° NNW
Spot 2 Rocket 3.6 20:24:37 10° S 20:29:43 81° WSW 20:34:50 10° NNW
OAO 3 Rocket 3.2 20:25:25 10° W 20:30:19 89° N 20:34:27 15° E
BREEZE-M DEB (TANK) 3.7 20:27:19 10° WSW 20:31:11 84° NNW 20:38:50 10° ENE
Cosmos 1892 3.5 20:27:52 10° NNW 20:31:34 51° W 20:35:16 10° S
YAOGAN 6 4.5 20:31:23 15° ENE 20:31:47 15° ENE 20:33:56 10° NE
Cosmos 1900 4.4 20:27:10 10° NNW 20:32:18 85° WSW 20:36:57 13° SSE
Cosmos 1400 Rocket 4.0 20:31:19 10° NNW 20:35:01 42° W 20:38:44 10° SSW
Meteor 1-29 3.1 20:33:40 10° NNE 20:37:03 50° E 20:40:24 10° S
H-2A R/B 4.2 20:34:15 10° SSW 20:37:56 39° W 20:41:35 10° NNW
CZ-3B DEB 2.5 20:43:09 10° WNW 20:46:03 21° WSW 20:47:29 14° SSW
Cosmos 2263 Rocket 3.2 20:43:24 10° N 20:48:09 28° ENE 20:50:08 23° E
Cosmos 220 Rocket 4.2 20:43:50 10° N 20:48:12 53° ENE 20:50:11 29° SE
Cosmos 1933 3.8 20:47:17 29° SE 20:48:31 37° E 20:52:15 10° NNE
Cosmos 1315 Rocket 3.3 20:44:49 10° NNW 20:48:49 60° W 20:52:46 10° S
Envisat 3.0 20:45:59 18° SSE 20:49:40 65° ENE 20:54:42 10° N
Cosmos 2322 Rocket 2.1 20:44:06 10° SSW 20:49:42 87° ESE 20:55:21 10° NNE
OTV 4 2.2 20:48:35 10° W 20:50:48 20° SSW 20:51:16 19° SSW
Cosmos 2360 Rocket 2.6 20:57:15 23° SSE 21:00:08 38° ESE 21:05:18 10° NE
Cosmos 1825 2.0 20:57:09 10° N 21:00:57 77° E 21:02:11 40° SSE
GENESIS II 4.3 20:58:11 10° SSW 21:02:13 79° WNW 21:06:17 10° NNE
USA 186 3.7 21:05:34 14° SW 21:07:09 22° W 21:09:24 10° NW
Cosmos 2322 4.1 21:07:11 35° SE 21:08:10 38° ESE 21:13:23 10° NE
SEDSat Delta rocket 3.7 21:03:13 10° WSW 21:08:32 59° S 21:10:43 37° ESE
USA 234 3.3 21:10:15 32° ESE 21:13:27 70° NE 21:19:57 10° NW
Cosmos 2026 Rocket 4.0 21:08:01 10° N 21:14:14 79° W 21:18:58 18° S
Cosmos 1862 3.2 21:11:29 10° N 21:15:31 77° E 21:16:03 64° SE
SL-16 R/B 2.9 21:12:00 10° SW 21:17:32 54° WNW 21:23:05 10° NNE
Helios 1B rocket 4.1 21:14:38 10° N 21:18:22 34° WNW 21:22:04 10° SW
ERBS 2.4 21:16:10 10° NW 21:19:24 76° WNW 21:19:24 76° WNW
Lacrosse 4 Rocket 1.4 21:16:33 10° NNW 21:20:55 84° ENE 21:21:30 66° SE
Cosmos 1939 Rocket 3.2 21:20:15 38° SSW 21:21:35 62° W 21:25:35 10° NNW
ERS-1 Rocket 2.9 21:22:09 52° SE 21:23:08 64° ENE 21:28:06 10° N
Cosmos 1733 Rocket 3.2 21:22:56 10° N 21:27:23 73° W 21:28:30 49° SSW
ATLAS 5 CENTAUR R/B 3.2 21:22:26 10° NNW 21:28:00 36° NE 21:29:19 33° ENE
Cosmos 1862 Rocket 4.2 21:27:07 20° SSW 21:30:04 56° W 21:34:30 10° N
STPSAT 2 (USA 217) 4.4 21:27:40 10° NNW 21:32:16 80° ENE 21:32:26 79° ESE
ARGOS 3.7 21:34:29 41° ENE 21:34:29 41° ENE 21:39:26 10° N
Cosmos 1408 4.3 21:32:09 10° NNW 21:35:25 30° W 21:36:27 26° WSW
SeaSat 1 3.3 21:36:49 35° NE 21:36:49 35° NE 21:41:07 10° N
Meteor 1-26 Rocket 4.1 21:40:50 55° S 21:42:10 83° E 21:47:57 10° N
Terra 4.0 21:48:57 14° NE 21:48:57 14° NE 21:50:09 10° NNE
Cosmos 1703 Rocket 4.3 21:51:17 48° NNE 21:51:17 48° NNE 21:54:31 10° N
Cosmos 1844 Rocket 4.3 21:47:19 10° N 21:50:44 20° NE 21:50:44 20° NE
Atlas Centaur 2 2.9 21:48:40 10° WSW 21:55:59 61° S 21:56:52 58° SE
USA 229 DEB 3.5 21:49:48 10° SSW 21:56:37 87° ESE 22:03:33 10° NNE
USA 229 3.5 21:49:53 10° SSW 21:56:42 86° ESE 22:03:38 10° NNE
Cosmos 2266 Rocket 3.8 21:56:03 10° N 22:02:21 85° E 22:02:49 78° SSE
BREEZE-M DEB (TANK) 4.1 21:47:44 10° NW 22:04:59 81° SW 22:05:43 71° SSE
Cosmos 2219 Rocket 4.4 22:10:17 13° NE 22:10:17 13° NE 22:10:50 10° NE
Nimbus 7 Rocket 4.3 22:02:01 10° NNE 22:07:59 89° ESE 22:08:00 89° ESE
MetOp-A 4.3 22:09:59 64° W 22:09:59 64° W 22:15:16 10° NNW
H-2A R/B 3.0 22:14:05 38° NNE 22:14:05 38° NNE 22:17:20 10° N
MOS 1-B Rocket 3.9 22:13:24 84° NNE 22:13:24 84° NNE 22:18:58 10° NNW
OAO 3 Rocket 4.2 22:09:01 10° W 22:12:17 42° W 22:12:17 42° W
Cosmos 1867 4.0 22:09:01 10° NNW 22:13:26 55° N 22:13:26 55° N
Meteor 1-14 Rocket 4.5 22:15:46 10° NNW 22:20:57 67° WNW 22:20:57 67° WNW
SPOT 5 3.8 22:22:39 47° NW 22:22:39 47° NW 22:26:11 10° NNW
Cosmos 968 Rocket 4.3 22:22:56 10° NNW 22:26:54 48° NW 22:26:54 48° NW
Milstar 3 3.8 22:22:15 10° W 22:26:44 31° SW 22:26:44 31° SW
Cosmos 2263 Rocket 3.4 22:27:06 10° NW 22:31:52 33° W 22:31:52 33° W
COSMOS 2428 3.6 22:34:03 42° N 22:34:03 42° N 22:37:48 10° NNE
H-2A R/B 4.4 22:38:12 19° N 22:38:12 19° N 22:39:28 10° N
Cosmos 2360 Rocket 4.1 22:39:31 10° WSW 22:44:10 26° WNW 22:48:50 10° N
Cosmos 2333 Rocket 4.1 23:16:06 24° NNE 23:16:06 24° NNE 23:18:15 10° NNE
ATLAS 5 CENTAUR R/B 3.8 23:07:03 10° NW 23:10:52 32° WNW 23:10:52 32° WNW
Cosmos 2237 Rocket 4.4 23:23:20 19° NNE 23:23:20 19° NNE 23:24:49 10° NNE
Terra 4.4 23:27:49 18° NNW 23:27:49 18° NNW 23:29:07 10° NNW
Cosmos 2278 Rocket 4.0 23:21:19 10° N 23:23:48 26° N 23:23:48 26° N
Cosmos 2219 Rocket 4.3 23:51:56 22° NNW 23:51:56 22° NNW 23:54:35 10° N
